This is the latest recevied weather packets stored in our database for station/object SQ2WB-13. If no packets are shown the sender has not sent any weather packets the latest 10 day(s).
| Time | Temp. | Humidity | Pressure | Rain* | Wind** | Luminosity | Snow |
|---|---|---|---|---|---|---|---|
| 1778004002 | 13.89° C | 75% | 998.9 hPa | 0 mm | - | - | - |
| 1778003101 | 13.89° C | 73% | 998.9 hPa | 0 mm | - | - | - |
| 1778002201 | 15° C | 72% | 998.9 hPa | 0 mm | - | - | - |
| 1778001302 | 15° C | 68% | 998.9 hPa | 0 mm | - | - | - |
| 1778000401 | 15° C | 67% | 998.9 hPa | 0 mm | - | - | - |
| 1777999501 | 15° C | 65% | 998.9 hPa | 0 mm | - | - | - |
| 1777998601 | 15.56° C | 66% | 998.9 hPa | 0 mm | - | - | - |
| 1777997703 | 15.56° C | 66% | 998.9 hPa | 0 mm | - | - | - |
| 1777996801 | 16.67° C | 62% | 998.9 hPa | 0 mm | - | - | - |
| 1777995901 | 17.78° C | 60% | 998.9 hPa | 0 mm | - | - | - |
| 1777995002 | 18.89° C | 58% | 998.9 hPa | 0 mm | - | - | - |
| 1777994101 | 18.89° C | 56% | 998.9 hPa | 0 mm | - | - | - |
| 1777993202 | 20° C | 60% | 998.9 hPa | 0 mm | - | - | - |
| 1777992301 | 20.56° C | 59% | 998.9 hPa | 0 mm | - | - | - |
| 1777991401 | 20.56° C | 61% | 998.9 hPa | 0 mm | - | - | - |
| 1777990501 | 20.56° C | 62% | 998.9 hPa | 0 mm | - | - | - |
| 1777989601 | 20.56° C | 62% | 998.9 hPa | 0 mm | - | - | - |
| 1777988701 | 20.56° C | 61% | 999.3 hPa | 0 mm | - | - | - |
| 1777987802 | 21.67° C | 60% | 998.9 hPa | 0 mm | - | - | - |
| 1777986902 | 20.56° C | 64% | 999.3 hPa | 0 mm | - | - | - |
| 1777986001 | 20° C | 68% | 999.6 hPa | 0 mm | - | - | - |
| 1777985101 | 20° C | 68% | 999.6 hPa | 0 mm | - | - | - |
| 1777984201 | 20° C | 68% | 1000 hPa | 0 mm | - | - | - |
| 1777983302 | 20° C | 69% | 1000 hPa | 0 mm | - | - | - |
| 1777982402 | 20° C | 68% | 1000 hPa | 0 mm | - | - | - |
* Rain latest hour (hover to see other rain measurements)
** Current wind speed in m/s (hover to see current wind gust speed)